Middlebury State AP, Middlebu, VT

11:00 PM EDT on September 16, 2019 (GMT -0400)
Middlebury State AP, Middlebu

Weather History for K6B0 - August, 2019

Change the Weather History Date:

Thursday, August 22, 2019

  Actual Average (WUND) Record (WUND)
Temperature  
Mean Temperature 68 °F -  
Max Temperature 81 °F - - (-1)
Min Temperature 56 °F - - (-1)
Cooling Degree Days 3    
Growing Degree Days 18 (Base 50)    
Moisture  
Dew Point 62 °F    
Average Humidity 80    
Maximum Humidity 97    
Minimum Humidity 42    
Precipitation  
Precipitation 0.00 in - - ()
Sea Level Pressure  
Sea Level Pressure 29.84 in    
Wind  
Wind Speed 4 mph ()    
Max Wind Speed 14 mph    
Max Gust Speed 17 mph    
Visibility 9.9 miles    
Events      
Averages and records for this station are not official NWS values.
T = Trace of Precipitation, MM = Missing Value Source: Averaged Metar Reports

Daily Weather History Graph

Daily Weather History Graph

Search for Another Location

Airport or City:

Astronomy

Aug. 22, 2019 Rise Set
Actual Time 6:04 AM EDT 7:45 PM EDT
Civil Twilight 5:33 AM EDT 8:16 PM EDT
Nautical Twilight 4:56 AM EDT 8:53 PM EDT
Astronomical Twilight 4:15 AM EDT 9:33 PM EDT
Moon 11:20 PM EDT (8/22) 12:50 PM EDT (8/22)
Length of Visible Light 14h 42m
Length of Day
13h 41m
Waning Gibbous, 60% of the Moon is Illuminated
Aug 22
Waning Gibbous
Aug 23
Last Quarter
Aug 30
New
Sep 5
First Quarter
Sep 14
Full

Hourly Weather History & Observations

Time (EDT) Temp. Heat Index Dew Point Humidity Pressure Visibility Wind Dir Wind Speed Gust Speed Precip Events Conditions
12:15 AM 66.9 °F - 66.0 °F 97% 29.82 in 10.0 mi South 5.8 mph - N/A   Overcast
12:20 AM 67.3 °F - 66.4 °F 97% 29.82 in 10.0 mi SSE 3.5 mph - N/A   Overcast
12:38 AM 67.6 °F - 66.6 °F 96% 29.81 in 10.0 mi SSE 5.8 mph - N/A   Overcast
12:56 AM 68.0 °F - 66.6 °F 95% 29.81 in 10.0 mi South 3.5 mph - N/A   Overcast
1:15 AM 68.0 °F - 66.6 °F 95% 29.82 in 10.0 mi South 4.6 mph - N/A   Overcast
1:16 AM 68.0 °F - 66.6 °F 95% 29.82 in 10.0 mi SSE 4.6 mph - N/A   Overcast
1:35 AM 68.4 °F - 66.6 °F 94% 29.82 in 10.0 mi Calm Calm - N/A   Overcast
1:36 AM 68.4 °F - 66.6 °F 94% 29.82 in 10.0 mi Calm Calm - N/A   Overcast
1:58 AM 67.3 °F - 66.4 °F 97% 29.82 in 7.0 mi Calm Calm - N/A   Mostly Cloudy
2:16 AM 66.7 °F - 65.7 °F 96% 29.82 in 10.0 mi SSE 3.5 mph - N/A   Scattered Clouds
2:36 AM 67.1 °F - 66.2 °F 97% 29.82 in 7.0 mi SSE 3.5 mph - N/A   Mostly Cloudy
2:55 AM 66.7 °F - 65.8 °F 97% 29.82 in 10.0 mi SSE 3.5 mph - N/A   Overcast
2:56 AM 66.9 °F - 65.8 °F 96% 29.82 in 10.0 mi SSE 3.5 mph - N/A   Overcast
3:15 AM 67.1 °F - 65.8 °F 96% 29.82 in 10.0 mi South 3.5 mph - N/A   Overcast
3:19 AM 67.1 °F - 65.8 °F 96% 29.81 in 10.0 mi South 4.6 mph - N/A   Overcast
3:37 AM 67.3 °F - 66.0 °F 96% 29.81 in 10.0 mi South 3.5 mph - N/A   Overcast
3:55 AM 67.5 °F - 66.2 °F 96% 29.81 in 10.0 mi SSE 4.6 mph - N/A   Overcast
4:15 AM 67.8 °F - 66.2 °F 95% 29.81 in 10.0 mi Calm Calm - N/A   Overcast
4:16 AM 67.8 °F - 66.2 °F 95% 29.81 in 10.0 mi Calm Calm - N/A   Overcast
4:35 AM 67.5 °F - 66.2 °F 96% 29.80 in 10.0 mi SSE 3.5 mph - N/A   Overcast
4:36 AM 67.5 °F - 66.2 °F 96% 29.80 in 10.0 mi Calm Calm - N/A   Overcast
4:59 AM 67.1 °F - 65.8 °F 96% 29.80 in 10.0 mi Calm Calm - N/A   Mostly Cloudy
5:16 AM 66.2 °F - 65.3 °F 97% 29.80 in 7.0 mi SSE 3.5 mph - N/A   Scattered Clouds
5:55 AM 67.1 °F - 65.5 °F 95% 29.80 in 10.0 mi SSE 3.5 mph - N/A   Clear
5:56 AM 67.1 °F - 65.5 °F 95% 29.80 in 10.0 mi SSE 3.5 mph - N/A   Clear
6:15 AM 67.5 °F - 65.7 °F 94% 29.80 in 10.0 mi South 3.5 mph - N/A   Clear
6:19 AM 67.6 °F - 65.7 °F 93% 29.81 in 10.0 mi South 3.5 mph - N/A   Clear
6:37 AM 67.3 °F - 65.5 °F 94% 29.81 in 10.0 mi Calm Calm - N/A   Clear
6:55 AM 68.0 °F - 65.8 °F 93% 29.81 in 10.0 mi Calm Calm - N/A   Clear
7:15 AM 68.7 °F - 66.2 °F 92% 29.82 in 10.0 mi Calm Calm - N/A   Clear
7:16 AM 68.9 °F - 66.2 °F 91% 29.82 in 10.0 mi Calm Calm - N/A   Clear
7:35 AM 69.8 °F - 66.4 °F 89% 29.81 in 10.0 mi SSE 5.8 mph - N/A   Clear
7:36 AM 69.8 °F - 66.4 °F 89% 29.81 in 10.0 mi South 4.6 mph - N/A   Clear
7:59 AM 70.5 °F - 66.6 °F 87% 29.81 in 10.0 mi SSE 6.9 mph - N/A   Clear
8:17 AM 71.2 °F - 66.7 °F 86% 29.81 in 10.0 mi SSE 10.4 mph - N/A   Clear
8:36 AM 72.1 °F - 67.1 °F 84% 29.82 in 10.0 mi South 11.5 mph - N/A   Scattered Clouds
8:55 AM 72.5 °F - 67.8 °F 85% 29.82 in 10.0 mi SSW 9.2 mph - N/A   Scattered Clouds
8:56 AM 72.5 °F - 67.8 °F 85% 29.82 in 10.0 mi SSW 9.2 mph - N/A   Scattered Clouds
9:15 AM 72.5 °F - 67.5 °F 84% 29.82 in 10.0 mi South 13.8 mph 17.3 mph N/A   Scattered Clouds
9:19 AM 72.5 °F - 67.8 °F 85% 29.83 in 10.0 mi South 10.4 mph 17.3 mph N/A   Mostly Cloudy
9:37 AM 73.6 °F - 68.4 °F 84% 29.83 in 10.0 mi SSW 5.8 mph - N/A   Mostly Cloudy
9:55 AM 74.3 °F - 68.7 °F 83% 29.83 in 10.0 mi SSW 10.4 mph - N/A   Scattered Clouds
10:15 AM 74.5 °F - 68.5 °F 82% 29.83 in 10.0 mi SSW 6.9 mph - N/A   Scattered Clouds
10:16 AM 74.7 °F - 68.5 °F 81% 29.83 in 10.0 mi South 8.1 mph - N/A   Scattered Clouds
10:35 AM 75.4 °F - 68.7 °F 80% 29.83 in 10.0 mi South 8.1 mph - N/A   Mostly Cloudy
10:39 AM 75.6 °F - 68.9 °F 80% 29.83 in 10.0 mi South 8.1 mph - N/A   Mostly Cloudy
10:58 AM 76.1 °F - 68.5 °F 77% 29.83 in 10.0 mi South 11.5 mph 17.3 mph N/A   Mostly Cloudy
11:15 AM 77.0 °F - 68.5 °F 75% 29.83 in 10.0 mi South 10.4 mph 16.1 mph N/A   Scattered Clouds
11:35 AM 76.3 °F - 67.8 °F 75% 29.84 in 10.0 mi SSW 8.1 mph - N/A   Scattered Clouds
11:55 AM 77.5 °F - 68.2 °F 73% 29.84 in 10.0 mi SSW 10.4 mph - N/A   Scattered Clouds
11:56 AM 77.4 °F - 68.0 °F 73% 29.84 in 10.0 mi SSW 10.4 mph - N/A   Scattered Clouds
12:19 PM 77.2 °F - 68.9 °F 76% 29.83 in 10.0 mi South 8.1 mph - N/A   Clear
12:37 PM 76.1 °F - 68.2 °F 76% 29.84 in 10.0 mi SSW 4.6 mph - N/A   Scattered Clouds
12:56 PM 77.0 °F - 68.2 °F 74% 29.84 in 10.0 mi SSW 5.8 mph - N/A   Scattered Clouds
1:15 PM 78.6 °F - 67.3 °F 68% 29.84 in 10.0 mi SW 6.9 mph - N/A   Scattered Clouds
1:16 PM 78.8 °F - 66.6 °F 66% 29.84 in 10.0 mi SW 8.1 mph - N/A   Scattered Clouds
1:35 PM 80.2 °F 80.9 °F 59.5 °F 49% 29.84 in 10.0 mi SW 9.2 mph - N/A   Clear
1:39 PM 79.9 °F - 59.0 °F 49% 29.84 in 10.0 mi WSW 11.5 mph 16.1 mph N/A   Clear
1:57 PM 79.7 °F - 59.2 °F 49% 29.85 in 10.0 mi SW 4.6 mph - N/A   Scattered Clouds
2:16 PM 79.5 °F - 57.7 °F 47% 29.85 in 10.0 mi WSW 8.1 mph - N/A   Clear
2:35 PM 78.8 °F - 57.0 °F 47% 29.85 in 10.0 mi Calm Calm - N/A   Clear
2:36 PM 78.6 °F - 57.0 °F 47% 29.85 in 10.0 mi WSW 3.5 mph - N/A   Clear
2:55 PM 79.2 °F - 59.0 °F 50% 29.84 in 10.0 mi WNW 4.6 mph - N/A   Clear
3:19 PM 78.1 °F - 53.4 °F 42% 29.84 in 10.0 mi WNW 5.8 mph - N/A   Clear
3:36 PM 77.9 °F - 54.1 °F 44% 29.85 in 10.0 mi WNW 6.9 mph - N/A   Clear
3:55 PM 74.8 °F - 56.8 °F 53% 29.85 in 10.0 mi North 5.8 mph - N/A   Clear
3:56 PM 74.8 °F - 56.8 °F 53% 29.85 in 10.0 mi North 5.8 mph - N/A   Clear
4:15 PM 75.4 °F - 58.5 °F 56% 29.84 in 10.0 mi NNW 4.6 mph - N/A   Clear
4:16 PM 75.4 °F - 58.5 °F 56% 29.85 in 10.0 mi NNW 4.6 mph - N/A   Clear
4:35 PM 73.4 °F - 61.3 °F 66% 29.85 in 10.0 mi NW 3.5 mph - N/A   Clear
4:36 PM 73.4 °F - 60.3 °F 63% 29.85 in 10.0 mi WNW 3.5 mph - N/A   Clear
4:58 PM 74.3 °F - 56.5 °F 54% 29.85 in 10.0 mi NNW 3.5 mph - N/A   Clear
5:16 PM 75.4 °F - 59.4 °F 57% 29.85 in 10.0 mi Calm Calm - N/A   Clear
5:36 PM 75.7 °F - 54.5 °F 48% 29.85 in 10.0 mi NNW 4.6 mph - N/A   Clear
5:55 PM 73.8 °F - 61.9 °F 66% 29.85 in 10.0 mi Calm Calm - N/A   Clear
5:56 PM 73.4 °F - 62.1 °F 68% 29.85 in 10.0 mi Calm Calm - N/A   Clear
6:15 PM 72.0 °F - 60.8 °F 68% 29.85 in 10.0 mi Calm Calm - N/A   Clear
6:38 PM 70.2 °F - 56.7 °F 62% 29.85 in 10.0 mi NNE 3.5 mph - N/A   Clear
6:56 PM 68.0 °F - 59.9 °F 75% 29.86 in 10.0 mi Calm Calm - N/A   Clear
7:15 PM 66.2 °F - 60.6 °F 82% 29.86 in 10.0 mi Calm Calm - N/A   Clear
7:16 PM 66.0 °F - 60.6 °F 83% 29.87 in 10.0 mi Calm Calm - N/A   Clear
7:35 PM 64.8 °F - 58.8 °F 81% 29.87 in 10.0 mi Calm Calm - N/A   Clear
7:36 PM 64.6 °F - 58.6 °F 81% 29.87 in 10.0 mi Calm Calm - N/A   Clear
8:17 PM 62.6 °F - 56.1 °F 79% 29.88 in 10.0 mi Calm Calm - N/A   Clear
8:35 PM 61.7 °F - 55.6 °F 80% 29.89 in 10.0 mi Calm Calm - N/A   Clear
8:36 PM 61.7 °F - 55.8 °F 81% 29.89 in 10.0 mi Calm Calm - N/A   Clear
8:55 PM 60.8 °F - 54.1 °F 79% 29.89 in 10.0 mi Calm Calm - N/A   Clear
8:56 PM 60.8 °F - 54.3 °F 79% 29.89 in 10.0 mi Calm Calm - N/A   Clear
9:15 PM 59.9 °F - 53.8 °F 80% 29.90 in 10.0 mi Calm Calm - N/A   Clear
9:19 PM 59.9 °F - 53.6 °F 80% 29.90 in 10.0 mi Calm Calm - N/A   Clear
9:37 PM 59.2 °F - 53.6 °F 82% 29.90 in 10.0 mi Calm Calm - N/A   Clear
9:55 PM 58.1 °F - 53.8 °F 86% 29.90 in 10.0 mi Calm Calm - N/A   Clear
10:15 PM 58.3 °F - 53.1 °F 83% 29.91 in 10.0 mi Calm Calm - N/A   Clear
10:16 PM 57.9 °F - 53.1 °F 84% 29.91 in 10.0 mi Calm Calm - N/A   Clear
10:35 PM 57.2 °F - 53.6 °F 88% 29.91 in 10.0 mi Calm Calm - N/A   Clear
10:36 PM 57.2 °F - 53.6 °F 88% 29.91 in 10.0 mi Calm Calm - N/A   Clear
10:57 PM 56.8 °F - 53.1 °F 87% 29.91 in 10.0 mi Calm Calm - N/A   Clear
11:15 PM 56.5 °F - 53.1 °F 88% 29.91 in 10.0 mi Calm Calm - N/A   Clear
11:35 PM 56.7 °F - 52.7 °F 87% 29.91 in 10.0 mi Calm Calm - N/A   Clear
11:36 PM 56.7 °F - 52.7 °F 87% 29.92 in 10.0 mi Calm Calm - N/A   Clear
11:55 PM 56.3 °F - 52.7 °F 88% 29.92 in 10.0 mi Calm Calm - N/A   Clear